Time,TemperatureF,DewpointF,PressureIn,WindDirection,WindDirectionDegrees,WindSpeedMPH,WindSpeedGustMPH,Humidity,HourlyPrecipIn,Conditions,Clouds,dailyrainin,SoftwareType,DateUTC
2013-08-06 00:01:00,52.0,44.0,29.93,NW,315,0.5,0.9,74,0.00,,,0.00,WUHU216HW,2013-08-06 04:01:00,
2013-08-06 00:16:00,51.7,44.4,29.93,North,0,0.0,0.0,76,0.00,,,0.00,WUHU216HW,2013-08-06 04:16:00,
2013-08-06 00:31:00,51.1,43.8,29.93,NE,34,0.4,0.7,76,0.00,,,0.00,WUHU216HW,2013-08-06 04:31:00,
2013-08-06 00:46:00,50.8,44.5,29.94,West,281,0.5,1.1,79,0.00,,,0.00,WUHU216HW,2013-08-06 04:46:00,
2013-08-06 01:01:00,50.4,43.7,29.94,ESE,113,0.7,0.9,78,0.00,,,0.00,WUHU216HW,2013-08-06 05:01:00,
2013-08-06 01:16:00,50.0,43.7,29.94,East,90,0.4,0.7,79,0.00,,,0.00,WUHU216HW,2013-08-06 05:16:00,
2013-08-06 01:31:00,49.7,43.7,29.94,NNW,338,0.3,0.4,80,0.00,,,0.00,WUHU216HW,2013-08-06 05:31:00,
2013-08-06 01:46:00,49.5,43.6,29.94,North,0,0.4,0.7,80,0.00,,,0.00,WUHU216HW,2013-08-06 05:46:00,
2013-08-06 02:01:00,49.3,43.7,29.93,WNW,286,0.6,1.1,81,0.00,,,0.00,WUHU216HW,2013-08-06 06:01:00,
2013-08-06 02:16:00,49.3,43.7,29.93,NNE,28,0.3,0.4,81,0.00,,,0.00,WUHU216HW,2013-08-06 06:16:00,
2013-08-06 02:31:00,49.1,43.8,29.94,North,0,0.0,0.0,82,0.00,,,0.00,WUHU216HW,2013-08-06 06:31:00,
2013-08-06 02:46:00,49.0,44.0,29.94,WNW,293,0.3,0.4,83,0.00,,,0.00,WUHU216HW,2013-08-06 06:46:00,
2013-08-06 03:01:00,49.1,44.1,29.93,North,0,0.0,0.0,83,0.00,,,0.00,WUHU216HW,2013-08-06 07:01:00,
2013-08-06 03:16:00,49.0,44.0,29.93,North,0,0.0,0.0,83,0.00,,,0.00,WUHU216HW,2013-08-06 07:16:00,
2013-08-06 03:31:00,48.8,43.8,29.94,North,0,0.0,0.0,83,0.00,,,0.00,WUHU216HW,2013-08-06 07:31:00,
2013-08-06 03:46:00,48.6,43.7,29.94,North,0,0.0,0.0,83,0.00,,,0.00,WUHU216HW,2013-08-06 07:46:00,
2013-08-06 04:01:00,48.6,43.9,29.94,NW,315,0.5,0.7,84,0.00,,,0.00,WUHU216HW,2013-08-06 08:01:00,
2013-08-06 04:16:00,48.4,43.5,29.94,North,0,0.0,0.0,83,0.00,,,0.00,WUHU216HW,2013-08-06 08:16:00,
2013-08-06 04:31:00,48.2,43.3,29.94,North,0,0.0,0.0,83,0.00,,,0.00,WUHU216HW,2013-08-06 08:31:00,
2013-08-06 04:46:00,48.1,43.5,29.95,North,0,0.0,0.0,84,0.00,,,0.00,WUHU216HW,2013-08-06 08:46:00,
2013-08-06 05:01:00,48.1,43.5,29.95,North,0,0.0,0.0,84,0.00,,,0.00,WUHU216HW,2013-08-06 09:01:00,
2013-08-06 05:16:00,48.2,43.9,29.95,North,0,0.0,0.0,85,0.00,,,0.00,WUHU216HW,2013-08-06 09:16:00,
2013-08-06 05:31:00,48.1,43.7,29.96,North,0,0.5,0.7,85,0.00,,,0.00,WUHU216HW,2013-08-06 09:31:00,
2013-08-06 05:46:00,47.9,43.6,29.96,North,0,0.0,0.0,85,0.00,,,0.00,WUHU216HW,2013-08-06 09:46:00,
2013-08-06 06:01:00,47.9,43.6,29.96,North,0,0.0,0.0,85,0.00,,,0.00,WUHU216HW,2013-08-06 10:01:00,
2013-08-06 06:16:00,48.1,43.7,29.97,North,0,0.0,0.0,85,0.00,,,0.00,WUHU216HW,2013-08-06 10:16:00,
2013-08-06 06:31:00,48.4,44.4,29.97,North,0,0.0,0.0,86,0.00,,,0.00,WUHU216HW,2013-08-06 10:31:00,
2013-08-06 06:46:00,49.0,45.3,29.97,North,0,0.0,0.0,87,0.00,,,0.00,WUHU216HW,2013-08-06 10:46:00,
2013-08-06 07:01:00,49.5,45.7,29.97,North,0,0.0,0.0,87,0.00,,,0.00,WUHU216HW,2013-08-06 11:01:00,
2013-08-06 07:16:00,50.0,46.3,29.98,North,0,0.0,0.0,87,0.00,,,0.00,WUHU216HW,2013-08-06 11:16:00,
2013-08-06 07:31:00,50.8,47.6,29.98,NE,45,0.5,0.7,89,0.00,,,0.00,WUHU216HW,2013-08-06 11:31:00,
2013-08-06 07:46:00,51.7,48.5,29.99,ESE,113,0.4,0.4,89,0.00,,,0.00,WUHU216HW,2013-08-06 11:46:00,
2013-08-06 08:01:00,53.6,50.1,29.99,East,92,0.4,0.7,88,0.00,,,0.00,WUHU216HW,2013-08-06 12:01:00,
2013-08-06 08:16:00,55.3,51.8,30.00,SSE,158,0.7,1.1,88,0.00,,,0.00,WUHU216HW,2013-08-06 12:16:00,
2013-08-06 08:31:00,57.6,53.7,30.00,East,100,0.5,1.1,87,0.00,,,0.00,WUHU216HW,2013-08-06 12:31:00,
2013-08-06 08:46:00,60.1,55.0,30.00,ESE,113,0.7,1.6,83,0.00,,,0.00,WUHU216HW,2013-08-06 12:46:00,
2013-08-06 09:01:00,62.1,55.2,30.00,ENE,66,0.8,2.2,78,0.00,,,0.00,WUHU216HW,2013-08-06 13:01:00,
2013-08-06 09:16:00,64.6,56.9,30.00,East,100,0.9,1.8,76,0.00,,,0.00,WUHU216HW,2013-08-06 13:16:00,
2013-08-06 09:31:00,65.5,56.6,30.00,ENE,57,1.1,1.8,73,0.00,,,0.00,WUHU216HW,2013-08-06 13:31:00,
2013-08-06 09:46:00,66.8,57.4,30.00,East,83,0.6,1.8,72,0.00,,,0.00,WUHU216HW,2013-08-06 13:46:00,
2013-08-06 10:01:00,68.8,57.3,30.00,ESE,106,1.0,2.5,67,0.00,,,0.00,WUHU216HW,2013-08-06 14:01:00,
2013-08-06 10:16:00,70.2,57.9,30.00,ESE,118,1.4,2.5,65,0.00,,,0.00,WUHU216HW,2013-08-06 14:16:00,
2013-08-06 10:31:00,71.3,57.6,30.00,SSE,151,1.2,2.7,62,0.00,,,0.00,WUHU216HW,2013-08-06 14:31:00,
2013-08-06 10:46:00,72.0,57.8,30.00,SSE,155,1.1,2.7,61,0.00,,,0.00,WUHU216HW,2013-08-06 14:46:00,
2013-08-06 11:01:00,72.5,56.3,30.00,South,177,1.0,2.5,57,0.00,,,0.00,WUHU216HW,2013-08-06 15:01:00,
2013-08-06 11:16:00,74.2,56.3,30.00,SSE,156,1.6,4.7,54,0.00,,,0.00,WUHU216HW,2013-08-06 15:16:00,
2013-08-06 11:31:00,75.1,55.8,30.00,SE,137,1.6,3.8,51,0.00,,,0.00,WUHU216HW,2013-08-06 15:31:00,
2013-08-06 11:46:00,75.8,56.4,30.00,SE,144,1.0,2.5,51,0.00,,,0.00,WUHU216HW,2013-08-06 15:46:00,
2013-08-06 12:01:00,76.1,56.3,30.00,NW,325,1.3,4.0,50,0.00,,,0.00,WUHU216HW,2013-08-06 16:01:00,
2013-08-06 12:16:00,77.0,55.3,30.00,SE,133,2.2,4.9,47,0.00,,,0.00,WUHU216HW,2013-08-06 16:16:00,
2013-08-06 12:31:00,77.0,55.3,30.00,South,172,1.6,3.4,47,0.00,,,0.00,WUHU216HW,2013-08-06 16:31:00,
2013-08-06 12:46:00,76.1,53.8,30.00,SE,144,1.5,4.0,46,0.00,,,0.00,WUHU216HW,2013-08-06 16:46:00,
2013-08-06 13:01:00,76.5,54.1,30.00,SE,143,1.8,4.0,46,0.00,,,0.00,WUHU216HW,2013-08-06 17:01:00,
2013-08-06 13:17:00,77.0,54.6,30.00,SSE,156,1.4,4.3,46,0.00,,,0.00,WUHU216HW,2013-08-06 17:17:00,
2013-08-06 13:32:00,77.0,53.4,30.00,SSE,162,1.9,4.0,44,0.00,,,0.00,WUHU216HW,2013-08-06 17:32:00,
2013-08-06 13:47:00,77.4,53.7,30.00,SE,127,1.4,4.0,44,0.00,,,0.00,WUHU216HW,2013-08-06 17:47:00,
2013-08-06 14:02:00,77.8,53.5,30.00,SSE,162,1.5,2.9,43,0.00,,,0.00,WUHU216HW,2013-08-06 18:02:00,
2013-08-06 14:17:00,78.1,53.1,30.00,SSE,161,1.9,5.4,42,0.00,,,0.00,WUHU216HW,2013-08-06 18:17:00,
2013-08-06 14:32:00,78.5,53.5,30.00,SE,133,1.7,3.6,42,0.00,,,0.00,WUHU216HW,2013-08-06 18:32:00,
2013-08-06 14:47:00,77.4,52.5,30.00,SE,146,1.5,3.4,42,0.00,,,0.00,WUHU216HW,2013-08-06 18:47:00,
2013-08-06 15:02:00,77.2,53.6,29.99,ESE,116,1.6,4.7,44,0.00,,,0.00,WUHU216HW,2013-08-06 19:02:00,
2013-08-06 15:17:00,76.5,53.6,29.99,ESE,122,1.1,2.9,45,0.00,,,0.00,WUHU216HW,2013-08-06 19:17:00,
2013-08-06 15:32:00,76.0,53.0,29.99,SSE,160,1.3,3.4,45,0.00,,,0.00,WUHU216HW,2013-08-06 19:32:00,
2013-08-06 15:47:00,76.0,52.4,29.99,SE,135,1.6,3.4,44,0.00,,,0.00,WUHU216HW,2013-08-06 19:47:00,
2013-08-06 16:02:00,75.8,52.8,30.00,SSE,156,1.5,2.5,45,0.00,,,0.00,WUHU216HW,2013-08-06 20:02:00,
2013-08-06 16:17:00,75.6,52.8,30.00,SSE,168,1.0,2.9,45,0.00,,,0.00,WUHU216HW,2013-08-06 20:17:00,
2013-08-06 16:32:00,75.1,52.8,30.00,East,95,1.3,2.7,46,0.00,,,0.00,WUHU216HW,2013-08-06 20:32:00,
2013-08-06 16:47:00,74.7,51.8,30.00,ESE,123,1.1,2.5,45,0.00,,,0.00,WUHU216HW,2013-08-06 20:47:00,
2013-08-06 17:02:00,74.5,52.3,30.00,ESE,109,0.8,2.2,46,0.00,,,0.00,WUHU216HW,2013-08-06 21:02:00,
2013-08-06 17:17:00,73.8,53.4,30.00,SW,215,0.8,2.5,49,0.00,,,0.00,WUHU216HW,2013-08-06 21:17:00,
2013-08-06 17:32:00,73.4,55.6,30.00,WNW,282,0.7,1.1,54,0.00,,,0.00,WUHU216HW,2013-08-06 21:32:00,
2013-08-06 17:47:00,73.1,55.4,30.00,SW,236,0.7,1.8,54,0.00,,,0.00,WUHU216HW,2013-08-06 21:47:00,
2013-08-06 18:02:00,72.7,54.0,30.01,ENE,78,0.6,1.3,52,0.00,,,0.00,WUHU216HW,2013-08-06 22:02:00,
2013-08-06 18:17:00,72.4,56.7,30.01,West,272,1.0,1.8,58,0.00,,,0.00,WUHU216HW,2013-08-06 22:17:00,
2013-08-06 18:32:00,71.3,57.6,30.01,West,270,1.2,1.8,62,0.00,,,0.00,WUHU216HW,2013-08-06 22:32:00,
2013-08-06 18:47:00,70.2,56.6,30.01,West,270,1.3,1.8,62,0.00,,,0.00,WUHU216HW,2013-08-06 22:47:00,
2013-08-06 19:02:00,69.8,56.7,30.02,West,270,1.0,1.3,63,0.00,,,0.00,WUHU216HW,2013-08-06 23:02:00,
2013-08-06 19:17:00,69.5,56.8,30.02,West,272,1.2,2.0,64,0.00,,,0.00,WUHU216HW,2013-08-06 23:17:00,
2013-08-06 19:32:00,68.8,56.5,30.02,WNW,293,0.9,1.3,65,0.00,,,0.00,WUHU216HW,2013-08-06 23:32:00,
2013-08-06 19:47:00,67.9,55.6,30.02,North,0,0.0,0.0,65,0.00,,,0.00,WUHU216HW,2013-08-06 23:47:00,
2013-08-06 20:02:00,67.1,54.9,30.02,North,0,0.0,0.0,65,0.00,,,0.00,WUHU216HW,2013-08-07 00:02:00,
2013-08-06 20:17:00,66.2,54.1,30.03,WNW,293,0.4,0.7,65,0.00,,,0.00,WUHU216HW,2013-08-07 00:17:00,
2013-08-06 20:32:00,65.5,53.4,30.03,North,0,0.0,0.0,65,0.00,,,0.00,WUHU216HW,2013-08-07 00:32:00,
2013-08-06 20:47:00,64.6,52.6,30.03,WNW,293,0.6,1.1,65,0.00,,,0.00,WUHU216HW,2013-08-07 00:47:00,
2013-08-06 21:02:00,63.9,52.3,30.04,NW,315,0.3,0.4,66,0.00,,,0.00,WUHU216HW,2013-08-07 01:02:00,
2013-08-06 21:17:00,63.2,52.0,30.04,North,0,0.4,0.4,67,0.00,,,0.00,WUHU216HW,2013-08-07 01:17:00,
2013-08-06 21:32:00,62.3,51.6,30.04,NW,310,0.5,0.9,68,0.00,,,0.00,WUHU216HW,2013-08-07 01:32:00,
2013-08-06 21:47:00,61.6,51.4,30.04,WNW,295,0.6,1.1,69,0.00,,,0.00,WUHU216HW,2013-08-07 01:47:00,
2013-08-06 22:02:00,60.8,51.1,30.04,NW,315,0.6,1.1,70,0.00,,,0.00,WUHU216HW,2013-08-07 02:02:00,
2013-08-06 22:17:00,60.1,50.8,30.04,WNW,293,0.7,1.6,71,0.00,,,0.00,WUHU216HW,2013-08-07 02:17:00,
2013-08-06 22:32:00,59.6,50.9,30.04,WNW,293,0.5,0.9,73,0.00,,,0.00,WUHU216HW,2013-08-07 02:32:00,
2013-08-06 22:47:00,59.0,50.8,30.04,North,0,0.0,0.0,74,0.00,,,0.00,WUHU216HW,2013-08-07 02:47:00,
2013-08-06 23:02:00,58.1,50.2,30.04,North,0,0.0,0.0,75,0.00,,,0.00,WUHU216HW,2013-08-07 03:02:00,
2013-08-06 23:17:00,57.8,50.2,30.04,North,0,0.0,0.0,76,0.00,,,0.00,WUHU216HW,2013-08-07 03:17:00,
2013-08-06 23:32:00,57.2,50.0,30.04,North,0,0.0,0.0,77,0.00,,,0.00,WUHU216HW,2013-08-07 03:32:00,
2013-08-06 23:47:00,56.7,49.9,30.04,North,0,0.0,0.0,78,0.00,,,0.00,WUHU216HW,2013-08-07 03:47:00,